This demonstration page uses our WeatherBlox Daily Observations layout. Learn more.

Left ArrowRight Arrow

41.86663, -103.66717

Hourly Observations for January 31, 2016

Temp ( °F °C ) Dew Point ( °F °C ) Humidity (%) Winds ( mph kmh ) Pressure ( in mb ) Visibility ( mi km ) Precip ( " mm )
12:53 am 00:53 Mostly Clear 31 -0.6 28 -2.2 89 89 WNW 7 11 29.78 1009 10 16 N/A
1:53 am 01:53 Mostly Cloudy 30 -1.1 27 -2.8 88 88 W 6 9 29.79 1009 10 16 N/A
2:53 am 02:53 Clear 28 -2.2 25 -3.9 88 88 N N/A 29.79 1009 10 16 N/A
3:53 am 03:53 Partly Cloudy 27 -2.8 24 -4.4 89 89 NW 6 9 29.82 1010 10 16 N/A
4:53 am 04:53 Clear 28 -2.2 24 -4.4 85 85 WNW 12 19 29.85 1011 10 16 N/A
5:53 am 05:53 Partly Cloudy 28 -2.2 23 -5 81 81 WNW 10 17 29.88 1012 10 16 N/A
6:53 am 06:53 Cloudy 27 -2.8 22 -5.6 81 81 WNW 8 13 29.91 1013 10 16 N/A
7:53 am 07:53 Mostly Cloudy 27 -2.8 20 -6.7 75 75 WNW 9 15 29.93 1013 10 16 N/A
8:53 am 08:53 Mostly Sunny 30 -1.1 19 -7.2 64 64 WNW 12 19 29.93 1013 10 16 N/A
9:53 am 09:53 Sunny 33 0.6 18 -7.8 54 54 WNW 13 20 29.93 1014 10 16 N/A
10:53 am 10:53 Sunny 36 2.2 18 -7.8 48 48 W 14 22 29.93 1013 10 16 N/A
11:53 am 11:53 Sunny 39 3.9 20 -6.7 46 46 NW 16 26 29.90 1012 10 16 N/A
12:53 pm 12:53 Mostly Sunny 40 4.4 18 -7.8 41 41 WNW 13 20 29.88 1012 10 16 N/A
1:53 pm 13:53 Mostly Sunny 40 4.4 17 -8.3 40 40 WNW 13 20 29.88 1012 10 16 N/A
2:53 pm 14:53 Mostly Cloudy 40 4.4 17 -8.3 40 40 WNW 12 19 29.88 1012 10 16 N/A
3:53 pm 15:53 Mostly Sunny 38 3.3 15 -9.4 39 39 WNW 8 13 29.89 1012 10 16 N/A
4:53 pm 16:53 Sunny 33 0.6 18 -7.8 54 54 W 7 11 29.92 1013 10 16 N/A
5:53 pm 17:53 Clear 31 -0.6 19 -7.2 61 61 W 6 9 29.95 1014 10 16 N/A
6:53 pm 18:53 Clear 30 -1.1 21 -6.1 69 69 NNW 3 6 29.96 1014 10 16 N/A
7:53 pm 19:53 Clear 30 -1.1 21 -6.1 69 69 N N/A 29.96 1014 10 16 N/A
8:53 pm 20:53 Mostly Clear 29 -1.7 22 -5.6 75 75 N N/A 29.96 1014 10 16 N/A
9:53 pm 21:53 Cloudy 28 -2.2 22 -5.6 78 78 N 3 6 29.94 1014 10 16 N/A
10:53 pm 22:53 Mostly Cloudy 24 -4.4 19 -7.2 81 81 NE 5 7 29.93 1014 10 16 N/A
11:53 pm 23:53 Cloudy 27 -2.8 23 -5 85 85 N N/A 29.91 1013 10 16 N/A

Powered by AerisWeather